When you browse on this site, cookies collect data to enhance your experience and personalize the content and advertising you see.
Visit our Privacy Policy to learn more. By continuing to use the site, you agree to this use of cookies and data.
  • In Deutschland
  • Länderverzeichnis
  • Für 7 Tage
  • Wassertemperatur
  • Satellitenkarten
  • Wetterkarte
  • Widgets
  • user-avatar
    Anmelden

    Stündliche Wetter Orbassano

    Heute, 19 Dezember, Mittwoch

    Zeit Temperatur Niederschläge Wind Luftdruck Luftfeuchtigkeit
    00:00 +4°C° 0 mm 1 m/S 743 mmHg 62%
    01:00 +4°C° 0 mm 1 m/S 743 mmHg 63%
    02:00 +4°C° 0 mm 1 m/S 742 mmHg 63%
    03:00 +4°C° 0 mm 1 m/S 742 mmHg 64%
    04:00 +4°C° 0 mm 1 m/S 742 mmHg 64%
    05:00 +4°C° 0 mm 1 m/S 742 mmHg 65%
    06:00 +4°C° 0 mm 1 m/S 741 mmHg 66%
    07:00 +4°C° 0 mm 1 m/S 741 mmHg 68%
    08:00 +4°C° 0 mm 1 m/S 741 mmHg 68%
    09:00 +5°C° 0 mm 1 m/S 741 mmHg 69%
    10:00 +6°C° 0 mm 1 m/S 741 mmHg 69%
    11:00 +6°C° 0.2 mm 1 m/S 741 mmHg 71%
    12:00 +6°C° 0.2 mm 1 m/S 740 mmHg 74%
    13:00 +5°C° 0.2 mm 2 m/S 740 mmHg 76%
    14:00 +6°C° 0.6 mm 1 m/S 740 mmHg 80%
    15:00 +5°C° 0.6 mm 1 m/S 739 mmHg 84%
    16:00 +5°C° 0.6 mm 1 m/S 739 mmHg 87%
    17:00 +5°C° 1.4 mm 1 m/S 739 mmHg 89%
    18:00 +5°C° 1.4 mm 1 m/S 739 mmHg 91%
    19:00 +5°C° 1.4 mm 1 m/S 738 mmHg 92%
    20:00 +5°C° 1.4 mm 1 m/S 739 mmHg 93%
    21:00 +4°C° 1.4 mm 1 m/S 739 mmHg 94%
    22:00 +4°C° 1.4 mm 1 m/S 739 mmHg 95%
    23:00 +4°C° 0.1 mm 1 m/S 739 mmHg 94%

    Morgen, 20 Dezember, Donnerstag

    Zeit Temperatur Niederschläge Wind Luftdruck Luftfeuchtigkeit
    00:00 +3°C° 0.1 mm 1 m/S 739 mmHg 92%
    01:00 +3°C° 0.1 mm 1 m/S 739 mmHg 91%
    02:00 +3°C° 0 mm 1 m/S 740 mmHg 90%
    03:00 +3°C° 0 mm 1 m/S 740 mmHg 89%
    04:00 +3°C° 0 mm 1 m/S 740 mmHg 87%
    05:00 +3°C° 0 mm 1 m/S 740 mmHg 86%
    06:00 +3°C° 0 mm 1 m/S 741 mmHg 85%
    07:00 +3°C° 0 mm 1 m/S 741 mmHg 84%
    08:00 +3°C° 0 mm 1 m/S 741 mmHg 84%
    09:00 +4°C° 0 mm 1 m/S 741 mmHg 83%
    10:00 +5°C° 0 mm 1 m/S 742 mmHg 82%
    11:00 +6°C° 0 mm 1 m/S 741 mmHg 82%
    12:00 +6°C° 0 mm 1 m/S 741 mmHg 82%
    13:00 +7°C° 0 mm 1 m/S 741 mmHg 82%
    14:00 +7°C° 0 mm 1 m/S 741 mmHg 84%
    15:00 +6°C° 0 mm 1 m/S 741 mmHg 86%
    16:00 +6°C° 0 mm 1 m/S 741 mmHg 87%
    17:00 +5°C° 0 mm 1 m/S 742 mmHg 85%
    18:00 +3°C° 0 mm 2 m/S 742 mmHg 83%
    19:00 +3°C° 0 mm 2 m/S 743 mmHg 81%
    20:00 +3°C° 0 mm 2 m/S 743 mmHg 79%
    21:00 +3°C° 0 mm 2 m/S 744 mmHg 78%
    22:00 +2°C° 0 mm 2 m/S 744 mmHg 76%
    23:00 +3°C° 0 mm 2 m/S 744 mmHg 76%

    übermorgen, 21 Dezember, Freitag

    Zeit Temperatur Niederschläge Wind Luftdruck Luftfeuchtigkeit
    00:00 +3°C° 0 mm 2 m/S 744 mmHg 76%
    01:00 +3°C° 0 mm 2 m/S 744 mmHg 77%
    02:00 +4°C° 0 mm 1 m/S 744 mmHg 76%
    03:00 +3°C° 0 mm 1 m/S 744 mmHg 76%
    04:00 +3°C° 0 mm 1 m/S 744 mmHg 76%
    05:00 +4°C° 0 mm 1 m/S 744 mmHg 76%
    06:00 +4°C° 0 mm 1 m/S 744 mmHg 77%
    07:00 +4°C° 0 mm 1 m/S 744 mmHg 77%
    08:00 +5°C° 0 mm 1 m/S 744 mmHg 79%
    09:00 +6°C° 0 mm 1 m/S 744 mmHg 81%
    10:00 +5°C° 0 mm 2 m/S 744 mmHg 82%
    11:00 +6°C° 0 mm 2 m/S 744 mmHg 84%
    12:00 +7°C° 0 mm 2 m/S 743 mmHg 86%
    13:00 +8°C° 0 mm 2 m/S 743 mmHg 88%
    14:00 +7°C° 0 mm 2 m/S 743 mmHg 89%
    15:00 +7°C° 0 mm 2 m/S 743 mmHg 90%
    16:00 +7°C° 0 mm 2 m/S 742 mmHg 92%
    17:00 +7°C° 0 mm 2 m/S 742 mmHg 91%
    18:00 +6°C° 0 mm 2 m/S 742 mmHg 91%
    19:00 +6°C° 0 mm 2 m/S 742 mmHg 90%
    20:00 +6°C° 0 mm 2 m/S 742 mmHg 90%
    21:00 +6°C° 0 mm 2 m/S 742 mmHg 90%
    22:00 +7°C° 0 mm 2 m/S 742 mmHg 90%
    23:00 +7°C° 0.1 mm 2 m/S 742 mmHg 90%

    22 Dezember, Samstag

    Zeit Temperatur Niederschläge Wind Luftdruck Luftfeuchtigkeit
    00:00 +7°C° 0.1 mm 2 m/S 742 mmHg 90%
    01:00 +7°C° 0.1 mm 2 m/S 742 mmHg 91%
    02:00 +7°C° 0.3 mm 2 m/S 741 mmHg 91%
    03:00 +7°C° 0.3 mm 2 m/S 741 mmHg 91%
    04:00 +7°C° 0.3 mm 2 m/S 741 mmHg 91%
    05:00 +7°C° 0.2 mm 2 m/S 741 mmHg 91%
    06:00 +7°C° 0.2 mm 2 m/S 741 mmHg 91%
    07:00 +7°C° 0.2 mm 2 m/S 741 mmHg 90%
    08:00 +8°C° 0.1 mm 2 m/S 741 mmHg 89%
    09:00 +8°C° 0.1 mm 2 m/S 741 mmHg 88%
    10:00 +9°C° 0.1 mm 2 m/S 741 mmHg 87%
    11:00 +10°C° 0 mm 2 m/S 741 mmHg 86%
    12:00 +10°C° 0 mm 2 m/S 741 mmHg 85%
    13:00 +12°C° 0 mm 2 m/S 741 mmHg 84%
    14:00 +12°C° 0 mm 2 m/S 740 mmHg 84%
    15:00 +10°C° 0 mm 2 m/S 740 mmHg 85%
    16:00 +10°C° 0 mm 2 m/S 740 mmHg 85%
    17:00 +10°C° 0 mm 2 m/S 741 mmHg 83%
    18:00 +9°C° 0 mm 2 m/S 741 mmHg 82%
    19:00 +9°C° 0 mm 3 m/S 742 mmHg 81%
    20:00 +9°C° 0 mm 3 m/S 742 mmHg 80%
    21:00 +8°C° 0 mm 3 m/S 742 mmHg 80%
    22:00 +8°C° 0 mm 2 m/S 742 mmHg 79%
    23:00 +8°C° 0 mm 2 m/S 742 mmHg 79%

    23 Dezember, Sonntag

    Zeit Temperatur Niederschläge Wind Luftdruck Luftfeuchtigkeit
    00:00 +8°C° 0 mm 2 m/S 742 mmHg 79%
    01:00 +8°C° 0 mm 2 m/S 742 mmHg 79%
    02:00 +8°C° 0 mm 2 m/S 742 mmHg 78%
    03:00 +8°C° 0 mm 2 m/S 742 mmHg 78%
    04:00 +8°C° 0 mm 2 m/S 742 mmHg 77%
    05:00 +8°C° 0 mm 2 m/S 742 mmHg 78%
    06:00 +8°C° 0 mm 2 m/S 742 mmHg 79%
    07:00 +8°C° 0 mm 2 m/S 742 mmHg 80%
    08:00 +9°C° 0 mm 2 m/S 742 mmHg 80%
    09:00 +9°C° 0 mm 2 m/S 743 mmHg 80%
    10:00 +11°C° 0 mm 1 m/S 743 mmHg 80%
    11:00 +12°C° 0 mm 2 m/S 743 mmHg 80%
    12:00 +12°C° 0 mm 2 m/S 742 mmHg 81%
    13:00 +13°C° 0 mm 2 m/S 742 mmHg 81%
    14:00 +13°C° 0 mm 2 m/S 742 mmHg 83%
    15:00 +12°C° 0 mm 2 m/S 742 mmHg 84%
    16:00 +12°C° 0 mm 2 m/S 742 mmHg 86%
    17:00 +10°C° 0 mm 2 m/S 742 mmHg 85%
    18:00 +9°C° 0 mm 2 m/S 743 mmHg 85%
    19:00 +9°C° 0 mm 2 m/S 743 mmHg 84%
    20:00 +9°C° 0 mm 2 m/S 743 mmHg 83%
    21:00 +9°C° 0 mm 2 m/S 744 mmHg 83%
    22:00 +9°C° 0 mm 2 m/S 744 mmHg 82%
    23:00 +9°C° 0 mm 2 m/S 744 mmHg 82%

    24 Dezember, Montag

    Zeit Temperatur Niederschläge Wind Luftdruck Luftfeuchtigkeit
    00:00 +9°C° 0 mm 2 m/S 744 mmHg 81%
    01:00 +9°C° 0 mm 2 m/S 744 mmHg 81%
    02:00 +9°C° 0 mm 2 m/S 744 mmHg 81%
    03:00 +9°C° 0 mm 2 m/S 744 mmHg 81%
    04:00 +9°C° 0 mm 2 m/S 743 mmHg 81%
    05:00 +9°C° 0 mm 2 m/S 743 mmHg 81%
    06:00 +9°C° 0 mm 2 m/S 743 mmHg 81%
    07:00 +9°C° 0 mm 2 m/S 743 mmHg 81%
    08:00 +10°C° 0 mm 2 m/S 743 mmHg 80%
    09:00 +10°C° 0 mm 2 m/S 744 mmHg 79%
    10:00 +12°C° 0 mm 1 m/S 744 mmHg 78%
    11:00 +13°C° 0 mm 1 m/S 743 mmHg 79%
    12:00 +14°C° 0 mm 1 m/S 743 mmHg 80%
    13:00 +14°C° 0 mm 1 m/S 743 mmHg 80%
    14:00 +14°C° 0 mm 1 m/S 743 mmHg 82%
    15:00 +13°C° 0 mm 1 m/S 743 mmHg 83%
    16:00 +13°C° 0 mm 1 m/S 743 mmHg 84%
    17:00 +12°C° 0 mm 1 m/S 743 mmHg 83%
    18:00 +11°C° 0 mm 1 m/S 744 mmHg 82%
    19:00 +11°C° 0 mm 1 m/S 744 mmHg 81%
    20:00 +10°C° 0 mm 1 m/S 744 mmHg 81%
    21:00 +10°C° 0 mm 1 m/S 745 mmHg 80%
    22:00 +10°C° 0 mm 1 m/S 745 mmHg 79%
    23:00 +10°C° 0 mm 1 m/S 745 mmHg 79%
    Mehr zeigen